www.pogodaiklimat.ru

Погода и климат >> Архив погоды >> Бангладеш >> Кокс-Базар


ПОГОДА в Кокс-Базаре

  • Прогноз погоды в Кокс-Базаре
  • Монитор погоды в Кокс-Базаре

АРХИВ ПОГОДЫ в Кокс-Базаре

Время (UTC), дата Ветер
(напр.,м/с)
 
Видим.   Явления Облачность Т
(С)
Тd
(С)
f
(%)
Тe
(С)
Тes
(С)
Комфортность P
(гПа)
Po
(гПа)
Тmin
(С)
Tmax
(С)
R
(мм)
R24
(мм)
S
(см)
18 16.08 штиль 0 2000 м слаб. дождь {морось} 10/6 210 м
[Cb cap As op]
+26.3 +26.0 98 +39 +39 очень
душно
1005.3 1005.1 2
21 16.08 штиль 0 2000 м дождь 10/6 210 м
[Cb cap As op]
+25.8 +25.8 100 +38 +38 очень
душно
1004.6 1004.4 10
00 17.08 штиль 0 2000 м слаб. морось {дождь} 9/5 240 м
[Cb calv Ac trans]
+25.3 +25.0 98 +36 +36 очень
душно
1003.8 1003.6 11
03 17.08 ЮВ 2 2500 м мгла 6/4 480 м
[Sc Ac trans]
+28.0 +26.0 89 +42 +48 опасность
перегрева
1005.0 1004.8 +25.3
06 17.08 Ю 2 3000 м мгла 8/5 540 м
[Sc Ac trans]
+29.8 +26.0 80 +45 +52 опасность
перегрева
1004.8 1004.6 112
09 17.08 Ю 2 3000 м мгла 5/3 480 м
[Sc diur, vesp Ac trans]
+30.0 +26.0 79 +45 +51 опасность
перегрева
1003.2 1003.0 120
12 17.08 ЮВ 2 3000 м мгла 4/3 480 м
[Sc Ac trans]
+27.8 +25.0 85 +40 +40 очень
душно
1003.1 1002.9 +30.7
15 17.08 штиль 0 2500 м мгла 5/4 480 м
[Sc Ac trans]
+27.2 +24.0 83 +38 +38 очень
душно
1004.8 1004.6
18 17.08 ЮВ 2 2500 м мгла 4/3 480 м
[Sc Ac trans]
+26.7 +25.0 90 +38 +38 очень
душно
1004.7 1004.5
21 17.08 В 2 2500 м мгла 8/5 480 м
[Sc diur, vesp Ac trans]
+26.4 +24.0 87 +37 +37 очень
душно
1004.4 1004.2
00 18.08 ЮВ 1 2500 м мгла 9/6 480 м
[Sc diur, vesp Ac As]
+26.0 +25.0 94 +37 +37 очень
душно
1004.8 1004.6 1
03 18.08 ЮВ 2 2000 м в посл. час гроза {дождь} 10/6 210 м
[Cb cap As op]
+25.2 +25.0 99 +36 +37 очень
душно
1008.1 1007.8 +25.0 30
06 18.08 штиль 0 2500 м слаб. морось {гроза, дождь} 9/5 240 м
[Cb calv As trans]
+26.2 +24.0 88 +36 +44 очень
душно
1007.7 1007.4 43
09 18.08 Ю 2 2500 м мгла 8/5 480 м
[Sc Ac trans]
+29.8 +26.0 80 +45 +48 опасность
перегрева
1005.1 1004.9
12 18.08 Ю 2 2500 м мгла 8/5 480 м
[Sc diur, vesp Ac trans Ci fib]
+29.2 +26.0 83 +44 +44 опасность
перегрева
1004.8 1004.6 +31.0
15 18.08 Ю 2 2500 м мгла 5/4 480 м
[Sc Ac trans]
+28.0 +25.0 84 +40 +40 очень
душно
1006.0 1005.8
18 18.08 штиль 0 2500 м мгла 8/5 480 м
[Sc Ac trans]
+26.8 +25.0 90 +39 +39 очень
душно
1007.3 1007.1
21 18.08 штиль 0 2500 м мгла 8/4 480 м
[Sc Ac trans]
+26.3 +25.0 93 +38 +38 очень
душно
1006.7 1006.5
00 19.08 штиль 0 2500 м мгла 4/3 480 м
[Sc Ac trans]
+25.8 +25.0 95 +37 +37 очень
душно
1006.2 1006.0
03 19.08 штиль 0 3000 м мгла 4/4 480 м
[Sc]
+30.0 +25.0 75 +43 +53 опасность
перегрева
1007.7 1007.5 +25.4
06 19.08 штиль 0 4000 м мгла 3/3 750 м
[Cu hum]
+31.4 +25.0 69 +45 +65 опасность
перегрева
1006.9 1006.6
09 19.08 ЮЗ 2 4000 м мгла 3/3 480 м
[Sc diur, vesp]
+31.3 +26.0 74 +47 +55 опасность
перегрева
1005.6 1005.3
12 19.08 Ю 1 3500 м мгла 4/3 480 м
[Sc Ac trans]
+29.4 +26.0 82 +44 +44 опасность
перегрева
1004.6 1004.3 +31.8
15 19.08 Ю 1 2500 м мгла 4/3 540 м
[Sc Ac trans]
+28.2 +26.0 88 +42 +42 опасность
перегрева
1006.0 1005.7
18 19.08 Ю 1 2500 м мгла 4/3 540 м
[Sc Ac trans]
+27.6 +26.0 91 +41 +41 опасность
перегрева
1006.1 1005.8
21 19.08 штиль 0 2500 м мгла 3/3 540 м
[Sc]
+26.8 +25.0 90 +39 +39 очень
душно
1005.5 1005.3
00 20.08 Ю 1 2500 м мгла 4/3 480 м
[Sc Ac trans]
+26.7 +25.0 90 +38 +38 очень
душно
1005.2 1005.0
03 20.08 штиль 0 3500 м мгла 5/3 480 м
[Sc diur, vesp Ac trans]
+30.0 +26.0 79 +45 +54 опасность
перегрева
1006.0 1005.7 +26.4
06 20.08 Ю 2 4000 м мгла 4/3 750 м
[Cu hum Ac trans]
+31.8 +26.0 71 +47 +62 опасность
перегрева
1005.2 1004.9
09 20.08 З 2 4000 м мгла ясно +31.0 +26.0 75 +46 +57 опасность
перегрева
1002.8 1002.5 30
12 20.08 штиль 0 3000 м мгла 5/0 2000 м
[Ac trans]
+30.0 +25.0 75 +43 +43 опасность
перегрева
1001.8 1001.5 +32.0
15 20.08 штиль 0 3000 м мгла 4/3 480 м
[Sc Ac trans]
+28.8 +26.0 85 +43 +43 опасность
перегрева
1003.0 1002.7
18 20.08 штиль 0 2500 м мгла 8/5 480 м
[Sc Ac trans]
+28.2 +25.0 83 +41 +41 опасность
перегрева
1004.3 1004.0
21 20.08 штиль 0 2500 м мгла 5/3 480 м
[Sc Ac trans]
+27.5 +26.0 92 +41 +41 опасность
перегрева
1003.6 1003.3
00 21.08 штиль 0 2500 м мгла 5/3 480 м
[Sc diur, vesp Ac trans]
+26.8 +25.0 90 +39 +39 очень
душно
1002.8 1002.6
03 21.08 Ю 3 3000 м мгла 5/3 480 м
[Sc Ac trans]
+31.0 +26.0 75 +46 +53 опасность
перегрева
1003.2 1002.9 +26.6
06 21.08 Ю 2 3500 м мгла 5/4 480 м
[Sc diur, vesp Ac trans]
+32.7 +26.0 68 +48 +60 опасность
перегрева
1003.2 1002.9
09 21.08 штиль 0 2500 м гроза, ливневой дождь 10/6 210 м
[Cb cap As op]
+28.3 +26.0 87 +42 +44 опасность
перегрева
1001.5 1001.2 6
12 21.08 штиль 0 2500 м мгла {гроза, дождь} 9/5 480 м
[Sc Ac trans]
+28.4 +26.0 87 +43 +43 опасность
перегрева
1000.5 1000.2 +33.0 6
15 21.08 штиль 0 2000 м слаб. дождь {гроза} 10/6 420 м
[Cb cap As op]
+26.5 +25.0 91 +38 +38 очень
душно
1003.0 1002.7 2
18 21.08 штиль 0 2000 м слаб. морось {гроза, дождь} 10/6 420 м
[Cb cap As op]
+26.0 +25.0 94 +37 +37 очень
душно
1003.0 1002.7 3
21 21.08 штиль 0 2000 м слаб. морось 10/6 420 м
[Cb cap As op]
+26.0 +25.0 94 +37 +37 очень
душно
1002.1 1001.9 0.0
00 22.08 штиль 0 2000 м слаб. морось 10/6 420 м
[Cb cap As op]
+26.5 +26.0 97 +40 +40 очень
душно
1002.0 1001.8 0.0
03 22.08 штиль 0 2500 м мгла {дождь} 9/5 480 м
[Sc Ac trans]
+28.6 +26.0 86 +43 +47 опасность
перегрева
1003.0 1002.7 +26.0
06 22.08 Ю 3 3000 м мгла {дождь} 8/5 480 м
[Sc Ac trans]
+30.7 +26.0 76 +46 +52 опасность
перегрева
1002.7 1002.4 0.0
09 22.08 ЮЗ 2 3000 м мгла 8/5 480 м
[Sc diur, vesp Ac trans]
+29.6 +26.0 81 +44 +48 опасность
перегрева
1000.9 1000.6
12 22.08 Ю 2 2500 м мгла 6/5 480 м
[Sc diur, vesp Ac trans]
+28.8 +26.0 85 +43 +43 опасность
перегрева
999.8 999.5 +32.0
15 22.08 Ю 3 2000 м слаб. дождь {гроза} 10/8 240 м
[Cb calv As op]
+26.4 +25.0 92 +38 +38 очень
душно
1003.0 1002.7 4
18 22.08 штиль 0 2000 м слаб. морось {гроза, дождь} 10/5 240 м
[Cb calv As op]
+26.8 +26.0 95 +40 +40 очень
душно
1003.3 1003.1 4
21 22.08 штиль 0 2000 м слаб. дождь 10/6 210 м
[Cb cap As op]
+26.3 +25.0 93 +38 +38 очень
душно
1003.1 1002.9 8
00 23.08 штиль 0 2000 м слаб. морось {дождь} 9/5 240 м
[Cb calv As trans]
+25.8 +25.0 95 +37 +37 очень
душно
1002.6 1002.4 11
03 23.08 ЮВ 2 3500 м мгла 5/3 480 м
[Sc Ac trans]
+30.5 +25.0 73 +44 +52 опасность
перегрева
1003.8 1003.6 +25.7
06 23.08 ЮВ 3 3000 м мгла 8/4 480 м
[Sc Ac trans]
+31.0 +25.0 70 +44 +51 опасность
перегрева
1003.6 1003.3
09 23.08 ЮВ 2 2500 м в посл. час дождь 8/4 480 м
[Sc Ac trans]
+28.6 +27.0 91 +45 +49 опасность
перегрева
1001.5 1001.2 1
12 23.08 ЮВ 2 2500 м мгла {дождь} 9/5 480 м
[Sc Ac trans]
+29.2 +25.0 78 +42 +42 опасность
перегрева
1002.0 1001.7 +32.0 1
15 23.08 ЮВ 2 2500 м мгла 6/4 480 м
[Sc Ac trans]
+27.2 +25.0 88 +39 +39 очень
душно
1003.6 1003.3

 

Местоположение метеостанции Кокс-Базар (Бангладеш): широта 21.43 долгота 91.93 высота над уровнем моря 4 м.

В архиве по умолчанию представлена погода в Кокс-Базаре за последнюю неделю. Архивные данные за месяц целиком и за предыдущие месяцы, начиная с января 2011 года, Вы можете получить, выбрав интересующий диапазон дат из раскрывающегося списка и нажав кнопку "Ввод!".


*Определитесь, кто Вы:
робот инопланетянин человек

Внимание! Время в таблицах - всемирное. Для получения местного времени необходимо прибавить поправку, которая равна 6.5 ч.

Смотрите также архив погоды в соседних городах и на ближайших метеорологических станциях:

Погода в Кутапдии (Бангладеш) (44 км)
Погода в Текнафе (Бангладеш) (73 км)
Погода в Читтагонге (Бангладеш) (94 км)
Погода в Кяуктаве (Мьянма) (97 км)
Погода в Рангамати (Бангладеш) (125 км)
Погода в Сандвипе (Бангладеш) (128 км)
Погода в Ситакунду (Бангладеш) (130 км)
Погода в Хатии (Бангладеш) (140 км)
Погода в Ситтво (Мьянма) (175 км)
Погода в Маиидиcурте (Бангладеш) (182 км)

Пояснения к столбцам:

Ветер - указаны скорость ветра в м/с - средняя за 10 мин, порывы в срок и между сроками (в фигурных скобках) и направление, откуда дует ветер: С - северный, СВ - северо-восточный, В - восточный, ЮВ - юго-восточный, Ю - южный, ЮЗ - юго-западный, З - западный, СЗ - северо-западный.
Видимость - горизонтальная дальность видимости в метрах или километрах. При видимости от 1 до 10 км при отсутствии осадков обычно наблюдается дымка, при ухудшении видимости до 1 км и менее - туман. В сухую погоду видимость может ухудшаться дымом, пылью или мглою.
Явления - указаны атмосферные явления, наблюдавшиеся в срок или в последний час перед сроком; фигурными скобками обозначены явления, наблюдавшиеся между сроками (за 1-3 часа до срока); квадратными скобками обозначены град или гололедные отложения с указанием их диаметра в мм.
Облачность - указаны через наклонную черту общая и нижняя облачность в баллах и высота нижней границы облаков в метрах; квадратными скобками обозначены формы облаков: Ci - перистые, Cs - перисто-слоистые, Cc - перисто-кучевые, Ac - высококучевые, As - высокослоистые, Sc - слоисто-кучевые, Ns - слоисто-дождевые, Cu - кучевые, Cb - кучево-дождевые. Подробнее классификацию облаков см. в Атласе облаков (PDF).
T - Температура воздуха - температура, измеренная на высоте 2 м над землей.
Td - Температура точки росы - температура, при понижении до которой содержащийся в воздухе водяной пар достигнет насыщения.
f - Относительная влажность воздуха - влажноcть воздуха, измеренная на высоте 2 м над землей.
Te - Эффективная температура - температура, которую ощущает одетый по сезону человек в тени. Характеристика душности погоды. При расчете учитывается влияние влажности воздуха и скорости ветра на теплоощущения человека.
Tes - Эффективная температура на солнце - температура, которую ощущает человек, с поправкой на солнечный нагрев. Характеристика знойности погоды. Зависит от высоты солнца над горизонтом, облачности и скорости ветра. Ночью, в пасмурную погоду, а также при ветре 12 м/с и более поправка равна нулю.
P - Атмосферное давление - приведенное к уровню моря атмосферное давление.
Po - Атмосферное давление - измеренное на уровне метеостанции атмосферное давление.
Tmin - Минимальная температура - минимум температуры воздуха на высоте 2 м над землей.
Tmax - Максимальная температура - максимум температуры воздуха на высоте 2 м над землей.
R - Количество осадков - Количество выпавших осадков за период времени, мм. При наведении курсора мыши на число - период времени, за который выпало указанное количество осадков.
R24 - Количество осадков - Количество выпавших осадков за 24 часа, мм.
S - Снежный покров - Высота снежного покрова, см. При наведении курсора мыши на число - состояние снежного покрова и степень покрытия местности в баллах.